AC2JK-WX Weather Reports


Display with metric or nautical units.
time (UTC)temp
F
wind
direction
speed
MPH
gust
MPH
rain 1hr
in
rain 24hr
in
rain mn
in
humidity
%
barometer
mb
20260507010209 45 245 0.0 0.0 0.00 0.00 0.44 90 1013.0
20260507005710 45 245 0.0 0.0 0.00 0.00 0.44 90 1013.0
20260507005210 45 245 0.0 0.0 0.00 0.00 0.44 90 1013.0
20260507004710 45 245 0.0 0.0 0.00 0.00 0.44 90 1013.0
20260507004209 45 245 0.0 0.0 0.00 0.00 0.44 90 1013.0
20260507003711 45 245 0.0 0.0 0.00 0.00 0.44 89 1013.0
20260507003210 45 245 0.0 0.0 0.00 0.00 0.44 89 1013.0
20260507002709 45 245 0.0 0.0 0.00 0.00 0.44 89 1013.0
20260507002209 45 245 0.0 0.0 0.00 0.00 0.44 89 1013.0
20260507001710 45 245 0.0 0.0 0.00 0.00 0.44 89 1013.0
20260507001210 45 245 0.0 0.0 0.00 0.00 0.44 89 1013.0
20260507000709 45 245 0.0 0.0 0.00 0.00 0.44 90 1013.0
20260507000212 45 245 0.0 0.0 0.00 0.00 0.44 88 1013.0
20260506235709 45 245 0.0 0.0 0.00 0.00 0.44 88 1013.0
20260506235210 45 245 0.0 0.0 0.00 0.00 0.44 87 1013.0
20260506234709 45 245 0.0 0.0 0.00 0.00 0.44 88 1013.0
20260506234209 45 245 0.0 2.0 0.00 0.00 0.44 87 1013.0
20260506233710 45 245 0.0 2.0 0.00 0.00 0.44 87 1013.0
20260506233209 46 245 0.0 1.0 0.00 0.00 0.44 88 1013.0
20260506232300 45 245 0.0 1.0 0.00 0.00 0.44 88 1013.0
20260506231709 45 245 1.0 3.0 0.00 0.00 0.44 88 1013.0
20260506231209 45 245 2.0 2.0 0.00 0.00 0.44 88 1013.0
20260506230710 45 245 0.0 1.0 0.00 0.00 0.44 88 1013.0
20260506230209 45 245 1.0 1.0 0.00 0.00 0.44 88 1013.0
20260506225710 45 245 2.0 2.0 0.00 0.00 0.44 88 1013.0
20260506225209 45 245 2.0 2.0 0.00 0.00 0.44 89 1012.0
20260506224710 45 245 2.0 4.0 0.00 0.00 0.44 89 1012.0
20260506224209 45 245 2.0 2.0 0.00 0.00 0.44 90 1012.0
20260506223709 45 245 2.0 4.0 0.00 0.00 0.44 90 1012.0
20260506223209 45 245 0.0 2.0 0.00 0.00 0.44 91 1012.0
20260506222709 45 245 1.0 3.0 0.00 0.00 0.44 91 1012.0
20260506222210 45 245 3.0 4.0 0.00 0.00 0.44 91 1012.0
20260506221709 44 245 1.0 5.0 0.00 0.00 0.44 91 1012.0
20260506221210 44 245 3.0 6.0 0.00 0.00 0.44 91 1012.0
20260506220710 44 245 6.0 6.0 0.00 0.00 0.44 92 1012.0
20260506220210 45 245 4.0 4.0 0.00 0.00 0.44 92 1012.0
20260506215709 44 245 3.0 5.0 0.00 0.00 0.44 92 1012.0
20260506215210 44 245 2.0 6.0 0.00 0.00 0.44 93 1012.0
20260506214710 44 245 4.0 6.0 0.00 0.00 0.44 94 1012.0
20260506214210 44 245 3.0 4.0 0.00 0.00 0.44 94 1012.0
20260506213709 44 245 0.0 3.0 0.00 0.00 0.44 94 1012.0
20260506213210 44 245 2.0 6.0 0.00 0.00 0.44 94 1012.0
20260506212709 44 245 2.0 7.0 0.00 0.00 0.44 94 1012.0
20260506212210 44 245 4.0 9.0 0.00 0.00 0.44 93 1012.0
20260506211709 44 245 2.0 11.0 0.00 0.00 0.44 93 1011.0
20260506211209 44 245 5.0 10.0 0.00 0.00 0.44 93 1011.0
20260506210709 44 245 3.0 9.0 0.00 0.00 0.44 93 1011.0
20260506210209 45 245 7.0 7.0 0.00 0.00 0.44 93 1011.0
20260506205710 45 245 2.0 4.0 0.00 0.00 0.44 91 1011.0
20260506205209 46 245 6.0 6.0 0.00 0.00 0.44 91 1011.0
20260506204709 46 245 7.0 8.0 0.00 0.00 0.44 89 1011.0
20260506204209 47 245 6.0 9.0 0.00 0.00 0.44 88 1011.0
20260506203710 48 245 3.0 5.0 0.00 0.00 0.44 87 1011.0
20260506203210 49 245 2.0 2.0 0.00 0.00 0.44 84 1011.0
20260506202709 51 245 7.0 7.0 0.00 0.00 0.44 79 1011.0
20260506202209 52 245 2.0 3.0 0.00 0.00 0.44 78 1011.0
20260506201709 52 245 2.0 8.0 0.00 0.00 0.44 77 1010.0
20260506201209 52 245 3.0 6.0 0.00 0.00 0.44 77 1010.0
20260506200710 52 245 5.0 9.0 0.00 0.00 0.44 78 1010.0
20260506200209 52 245 2.0 7.0 0.00 0.00 0.44 77 1010.0
20260506195710 53 245 6.0 11.0 0.00 0.00 0.44 76 1010.0
20260506195209 54 245 4.0 8.0 0.00 0.00 0.44 75 1010.0
20260506194709 55 245 4.0 7.0 0.00 0.00 0.44 74 1010.0
20260506194209 55 245 2.0 2.0 0.00 0.00 0.44 77 1010.0
20260506193711 54 245 2.0 2.0 0.00 0.00 0.44 75 1010.0
20260506193209 53 245 2.0 2.0 0.00 0.00 0.44 77 1010.0
20260506192713 53 245 1.0 3.0 0.00 0.00 0.44 79 1010.0
20260506192211 52 245 4.0 6.0 0.00 0.00 0.44 81 1010.0
20260506191715 51 245 0.0 2.0 0.00 0.00 0.44 83 1010.0
20260506191210 51 245 1.0 3.0 0.00 0.00 0.44 83 1010.0
20260506190712 51 245 1.0 2.0 0.00 0.00 0.44 84 1010.0
20260506190209 51 245 1.0 2.0 0.00 0.00 0.44 83 1010.0
20260506185710 51 245 2.0 3.0 0.00 0.00 0.44 82 1010.0
20260506184747 53 245 2.0 2.0 0.00 0.00 0.44 78 1010.0
20260506184210 53 245 0.0 2.0 0.00 0.00 0.44 77 1010.0
20260506183710 53 245 0.0 2.0 0.00 0.00 0.44 75 1010.0
20260506183210 54 245 0.0 2.0 0.00 0.00 0.44 76 1010.0
20260506182709 54 245 1.0 3.0 0.00 0.00 0.44 78 1010.0
20260506182210 53 245 0.0 2.0 0.00 0.00 0.44 81 1010.0
20260506181709 52 245 0.0 1.0 0.00 0.00 0.44 82 1010.0
20260506181209 52 245 1.0 1.0 0.00 0.00 0.44 83 1010.0
20260506180709 51 245 0.0 0.0 0.00 0.00 0.44 82 1010.0
20260506180210 51 245 0.0 0.0 0.00 0.00 0.44 81 1010.0
20260506175710 52 245 0.0 0.0 0.00 0.00 0.44 80 1010.0
20260506175209 52 245 0.0 0.0 0.00 0.00 0.44 82 1010.0
20260506174709 52 245 0.0 1.0 0.00 0.00 0.44 81 1010.0
20260506174211 52 245 0.0 0.0 0.00 0.00 0.44 79 1010.0
20260506173710 52 245 2.0 3.0 0.00 0.00 0.44 80 1010.0
20260506173210 52 245 0.0 0.0 0.00 0.00 0.44 80 1010.0
20260506172709 52 245 0.0 2.0 0.00 0.00 0.44 79 1010.0
20260506172209 52 245 0.0 2.0 0.00 0.00 0.44 81 1010.0
20260506171710 52 245 0.0 2.0 0.00 0.00 0.44 81 1010.0
20260506171209 52 245 1.0 1.0 0.00 0.00 0.44 81 1010.0
20260506170709 52 245 0.0 2.0 0.00 0.00 0.44 82 1010.0
20260506170210 52 245 0.0 2.0 0.00 0.00 0.44 83 1010.0
20260506165710 52 245 0.0 2.0 0.00 0.00 0.44 84 1010.0
20260506165210 51 245 1.0 1.0 0.00 0.00 0.44 83 1010.0
20260506164709 51 245 1.0 1.0 0.00 0.00 0.44 83 1010.0
20260506164209 51 245 1.0 1.0 0.00 0.00 0.44 82 1010.0
20260506163710 51 245 1.0 1.0 0.00 0.00 0.44 83 1010.0
20260506163211 52 245 1.0 3.0 0.00 0.00 0.44 85 1010.0
20260506162709 51 245 0.0 1.0 0.00 0.00 0.44 87 1010.0
20260506162211 51 245 0.0 0.0 0.00 0.00 0.44 87 1010.0
20260506161710 50 245 1.0 1.0 0.00 0.00 0.44 87 1010.0
20260506161210 50 245 1.0 2.0 0.00 0.00 0.44 88 1010.0
20260506160709 50 245 0.0 1.0 0.00 0.00 0.44 89 1010.0
20260506160210 50 245 0.0 3.0 0.00 0.00 0.44 88 1010.0
20260506155709 50 245 1.0 1.0 0.00 0.00 0.44 90 1010.0
20260506155210 50 245 0.0 2.0 0.00 0.00 0.44 90 1010.0
20260506154709 50 245 0.0 1.0 0.00 0.00 0.44 90 1010.0
20260506154209 50 245 2.0 2.0 0.00 0.00 0.44 91 1010.0
20260506153709 49 245 1.0 1.0 0.00 0.00 0.44 91 1010.0
20260506153210 49 245 1.0 2.0 0.00 0.00 0.44 91 1010.0
20260506152709 49 245 2.0 2.0 0.00 0.00 0.44 92 1010.0
20260506152210 49 245 0.0 0.0 0.00 0.00 0.44 93 1010.0
20260506151710 49 245 0.0 0.0 0.00 0.00 0.44 93 1010.0
20260506151209 49 245 0.0 0.0 0.00 0.00 0.44 94 1010.0
20260506150711 49 245 0.0 0.0 0.01 0.00 0.44 95 1010.0
20260506150210 49 245 0.0 1.0 0.01 0.00 0.44 95 1010.0
20260506145709 49 245 0.0 1.0 0.01 0.00 0.44 95 1010.0
20260506145209 49 245 0.0 1.0 0.01 0.00 0.44 95 1010.0
20260506144709 49 245 0.0 1.0 0.01 0.00 0.44 96 1010.0
20260506144213 48 245 3.0 3.0 0.01 0.00 0.44 96 1010.0
20260506143709 48 245 0.0 2.0 0.01 0.00 0.44 96 1010.0
20260506143210 48 245 0.0 1.0 0.01 0.00 0.44 97 1010.0
20260506142709 48 245 1.0 2.0 0.02 0.00 0.44 96 1010.0
20260506142210 48 245 0.0 1.0 0.02 0.00 0.44 97 1010.0
20260506141300 47 245 0.0 2.0 0.02 0.00 0.44 97 1010.0
20260506140711 47 245 0.0 1.0 0.01 0.00 0.43 97 1010.0
20260506140210 47 245 1.0 1.0 0.01 0.00 0.43 97 1010.0
20260506135709 47 245 0.0 1.0 0.01 0.00 0.43 97 1010.0
20260506135209 47 245 0.0 1.0 0.01 0.00 0.43 97 1010.0
20260506134710 47 245 1.0 1.0 0.01 0.00 0.43 97 1009.0
20260506134209 47 245 0.0 2.0 0.01 0.00 0.43 97 1009.0
20260506133709 47 245 0.0 1.0 0.01 0.00 0.43 97 1009.0
20260506133209 46 245 1.0 1.0 0.00 0.00 0.43 97 1009.0
20260506132715 46 245 0.0 1.0 0.00 0.00 0.42 97 1009.0
20260506132210 46 245 0.0 1.0 0.01 0.00 0.42 97 1009.0
20260506131709 46 245 1.0 1.0 0.01 0.00 0.42 98 1009.0
20260506131209 46 245 0.0 1.0 0.01 0.00 0.42 97 1009.0
20260506130709 46 245 0.0 1.0 0.01 0.00 0.42 97 1009.0
20260506130210 46 245 1.0 3.0 0.01 0.00 0.42 98 1009.0
20260506125711 46 245 1.0 1.0 0.01 0.00 0.42 98 1009.0
20260506125211 46 245 0.0 1.0 0.01 0.00 0.42 98 1009.0
20260506124709 46 245 0.0 1.0 0.02 0.00 0.42 98 1009.0
20260506124209 46 245 1.0 1.0 0.02 0.00 0.42 98 1009.0
20260506123709 46 245 0.0 1.0 0.02 0.00 0.42 98 1009.0
20260506123209 46 245 0.0 1.0 0.02 0.00 0.42 98 1009.0
20260506122709 46 245 1.0 1.0 0.02 0.00 0.42 98 1009.0
20260506122210 46 245 1.0 2.0 0.02 0.00 0.41 98 1009.0
20260506121710 46 245 0.0 1.0 0.02 0.00 0.41 98 1009.0
20260506121210 46 245 0.0 1.0 0.02 0.00 0.41 98 1009.0
20260506120709 46 245 0.0 1.0 0.03 0.00 0.41 98 1009.0
20260506120210 46 245 0.0 1.0 0.03 0.00 0.41 98 1009.0
20260506115710 46 245 0.0 1.0 0.03 0.00 0.41 98 1009.0
20260506115210 46 245 1.0 1.0 0.03 0.00 0.41 98 1009.0
20260506114709 46 245 0.0 0.0 0.03 0.00 0.40 98 1009.0
20260506114210 47 245 1.0 1.0 0.03 0.00 0.40 98 1009.0
20260506113712 47 245 0.0 0.0 0.03 0.00 0.40 98 1009.0
20260506113209 47 245 1.0 1.0 0.03 0.00 0.40 98 1009.0
20260506112712 47 245 0.0 0.0 0.03 0.00 0.40 98 1008.0
20260506112210 46 245 0.0 0.0 0.02 0.00 0.39 98 1009.0
20260506111711 46 245 0.0 2.0 0.03 0.00 0.39 98 1008.0
20260506111210 46 245 1.0 1.0 0.03 0.00 0.39 98 1009.0
20260506110709 46 245 0.0 0.0 0.02 0.00 0.38 98 1009.0
20260506110211 46 245 0.0 0.0 0.02 0.00 0.38 98 1009.0
20260506105710 46 245 0.0 1.0 0.03 0.00 0.38 98 1009.0
20260506105211 46 245 0.0 1.0 0.03 0.00 0.38 98 1009.0
20260506104714 46 245 0.0 3.0 0.03 0.00 0.37 98 1009.0
20260506104209 46 245 1.0 1.0 0.03 0.00 0.37 98 1009.0
20260506103712 46 245 0.0 1.0 0.04 0.00 0.37 98 1008.0
20260506103211 46 245 0.0 1.0 0.04 0.00 0.37 98 1009.0
20260506102710 46 245 1.0 1.0 0.04 0.00 0.37 98 1009.0
20260506102210 46 245 0.0 0.0 0.05 0.00 0.37 98 1008.0
20260506101710 46 245 0.0 1.0 0.04 0.00 0.36 98 1008.0
20260506101210 46 245 0.0 0.0 0.04 0.00 0.36 98 1008.0
20260506100711 46 245 0.0 1.0 0.05 0.00 0.36 98 1008.0
20260506100212 46 245 2.0 2.0 0.04 0.00 0.35 98 1009.0
20260506095709 46 245 1.0 2.0 0.05 0.00 0.35 98 1009.0
20260506095209 47 245 0.0 1.0 0.06 0.00 0.35 98 1009.0
20260506094709 47 245 0.0 1.0 0.05 0.00 0.34 98 1009.0
20260506094210 47 245 0.0 1.0 0.06 0.00 0.34 98 1009.0
20260506093711 46 245 1.0 1.0 0.05 0.00 0.33 98 1009.0
20260506093209 46 245 0.0 1.0 0.05 0.00 0.33 98 1009.0
20260506092709 47 245 1.0 2.0 0.05 0.00 0.32 98 1009.0
20260506092209 47 245 1.0 1.0 0.05 0.00 0.32 98 1009.0
20260506091709 47 245 0.0 2.0 0.06 0.00 0.32 98 1009.0
20260506091212 47 245 0.0 1.0 0.06 0.00 0.31 99 1009.0
20260506090710 47 245 1.0 2.0 0.06 0.00 0.31 98 1009.0
20260506090209 47 245 2.0 2.0 0.06 0.00 0.30 98 1009.0
20260506085709 47 245 0.0 1.0 0.06 0.00 0.30 99 1009.0
20260506085210 47 245 0.0 1.0 0.06 0.00 0.29 99 1009.0
20260506084709 47 245 0.0 1.0 0.06 0.00 0.28 99 1009.0
20260506084211 48 245 1.0 1.0 0.06 0.00 0.28 99 1009.0
20260506083709 48 245 3.0 3.0 0.06 0.00 0.28 99 1009.0
20260506083211 48 245 1.0 1.0 0.07 0.00 0.28 99 1008.0
20260506082709 48 245 0.0 1.0 0.06 0.00 0.27 98 1008.0
20260506082210 48 245 0.0 1.0 0.05 0.00 0.26 98 1008.0
20260506081710 48 245 0.0 1.0 0.06 0.00 0.26 99 1009.0
20260506081210 48 245 0.0 0.0 0.05 0.00 0.25 99 1009.0
20260506080709 48 245 1.0 1.0 0.05 0.00 0.25 99 1008.0
20260506080210 48 245 1.0 1.0 0.05 0.00 0.24 99 1008.0
20260506073210 49 245 0.0 0.0 0.05 0.00 0.21 98 1009.0
20260506072709 49 245 0.0 1.0 0.05 0.00 0.21 98 1009.0
20260506072209 49 245 0.0 1.0 0.05 0.00 0.21 98 1008.0
20260506071710 49 245 0.0 1.0 0.05 0.00 0.20 98 1009.0
20260506071210 49 245 2.0 2.0 0.05 0.00 0.20 98 1009.0
20260506070709 49 245 0.0 1.0 0.05 0.00 0.20 98 1009.0
20260506070210 49 245 0.0 1.0 0.04 0.00 0.19 98 1009.0
20260506062209 49 245 0.0 0.0 0.03 0.00 0.15 98 1009.0
20260506061709 49 245 1.0 1.0 0.04 0.00 0.15 98 1009.0
20260506061209 49 245 0.0 1.0 0.05 0.00 0.15 98 1009.0
20260506060709 49 245 1.0 1.0 0.05 0.00 0.15 98 1009.0
20260506060210 49 245 0.0 1.0 0.07 0.00 0.15 98 1009.0
20260506051209 49 245 1.0 1.0 0.09 0.00 0.10 98 1010.0
20260506050710 49 245 0.0 1.0 0.09 0.00 0.10 98 1010.0
20260506050210 49 245 1.0 1.0 0.08 0.00 0.08 98 1010.0
20260506044710 49 245 0.0 1.0 0.05 0.00 0.05 97 1010.0
20260506044209 49 245 0.0 1.0 0.04 0.00 0.04 98 1010.0
20260506043709 49 245 0.0 1.0 0.04 0.00 0.04 98 1009.0
20260506043209 49 245 0.0 1.0 0.03 0.00 0.03 97 1009.0
20260506042709 49 245 1.0 1.0 0.02 0.00 0.02 98 1009.0
20260506042209 49 245 0.0 1.0 0.02 0.00 0.02 97 1009.0
20260506041709 50 245 1.0 1.0 0.02 0.00 0.01 97 1009.0
20260506041209 49 245 0.0 1.0 0.02 0.00 0.01 98 1009.0
20260506040710 49 245 0.0 1.0 0.02 0.00 0.00 97 1009.0
20260506040210 49 245 1.0 1.0 0.02 0.00 0.59 97 1009.0
20260506035710 49 245 0.0 1.0 0.03 0.00 0.59 97 1009.0
20260506035217 49 245 1.0 1.0 0.04 0.00 0.59 97 1009.0
20260506034710 49 245 1.0 1.0 0.04 0.00 0.59 97 1009.0
20260506034211 49 245 0.0 1.0 0.05 0.00 0.59 97 1009.0
20260506033709 50 245 1.0 1.0 0.05 0.00 0.59 97 1009.0
20260506033209 50 245 1.0 1.0 0.06 0.00 0.59 97 1009.0
20260506032709 49 245 0.0 1.0 0.06 0.00 0.59 97 1009.0
20260506032210 49 245 1.0 1.0 0.07 0.00 0.59 97 1010.0
20260506031710 50 245 1.0 1.0 0.06 0.00 0.58 97 1010.0
20260506031210 50 245 0.0 1.0 0.06 0.00 0.58 97 1009.0
20260506030710 50 245 0.0 1.0 0.05 0.00 0.57 97 1010.0
20260506030210 50 245 1.0 1.0 0.06 0.00 0.57 97 1010.0
20260506025709 50 245 0.0 0.0 0.05 0.00 0.56 97 1010.0
20260506025210 50 245 0.0 1.0 0.04 0.00 0.55 97 1010.0
20260506024710 50 245 1.0 1.0 0.04 0.00 0.55 97 1010.0
20260506024209 49 245 0.0 1.0 0.03 0.00 0.54 97 1010.0
20260506023709 49 245 0.0 1.0 0.03 0.00 0.54 97 1010.0
20260506023210 49 245 0.0 1.0 0.02 0.00 0.53 97 1010.0
20260506022710 49 245 1.0 1.0 0.02 0.00 0.53 97 1010.0
20260506022209 49 245 0.0 1.0 0.02 0.00 0.52 97 1010.0
20260506021709 50 245 0.0 1.0 0.02 0.00 0.52 97 1010.0
20260506021210 50 245 1.0 1.0 0.02 0.00 0.52 97 1010.0
20260506020709 49 245 0.0 1.0 0.02 0.00 0.52 97 1010.0
20260506020210 49 245 0.0 1.0 0.01 0.00 0.51 97 1010.0
20260506015710 49 245 1.0 1.0 0.02 0.00 0.51 97 1010.0
20260506015209 49 245 0.0 1.0 0.02 0.00 0.51 97 1010.0
20260506014709 49 245 0.0 1.0 0.02 0.00 0.51 96 1010.0
20260506014209 49 245 1.0 1.0 0.03 0.00 0.51 96 1010.0
20260506013710 50 245 1.0 1.0 0.04 0.00 0.51 96 1010.0
20260506013209 50 245 0.0 1.0 0.05 0.00 0.51 96 1010.0
20260506012709 50 245 1.0 2.0 0.05 0.00 0.50 96 1010.0
20260506012210 50 245 0.0 2.0 0.06 0.00 0.50 96 1010.0
20260506011712 50 245 0.0 0.0 0.07 0.00 0.50 96 1010.0
20260506011210 49 245 0.0 0.0 0.08 0.00 0.50 96 1010.0
20260506010711 49 245 0.0 0.0 0.10 0.00 0.50 96 1010.0